Weather History for Dawson, YT

Change the Weather History Date:

Tuesday, June 25, 2013

  Actual Average Record
Temperature  
Mean Temperature 68 °F -  
Max Temperature 88 °F 71 °F 88 °F (2013)
Min Temperature 47 °F 45 °F 37 °F (2005)
Cooling Degree Days 2    
Growing Degree Days 18 (Base 50)    
Moisture  
Dew Point 46 °F    
Average Humidity 43    
Maximum Humidity 84    
Minimum Humidity 13    
Precipitation  
Precipitation 0.00 in - - ()
Sea Level Pressure  
Sea Level Pressure 29.68 in    
Wind  
Wind Speed 2 mph ()    
Max Wind Speed 6 mph    
Max Gust Speed -    
Visibility 20.0 miles    
Events      
Averages and records for this station are not official NWS values.
T = Trace of Precipitation, MM = Missing Value Source: Averaged Metar Reports

Daily Weather History Graph

Daily Weather History Graph

Search for Another Location

Airport:

Trip Planner

Search our weather history database for the weather conditions in past years. The results will help you decide how hot, cold, wet, or windy it might be!

Date:

Astronomy

Jun. 25, 2013 Rise Set
Actual Time 3:49 AM PDT 12:48 AM PDT
Civil Twilight Sun does not rise Sun does not rise
Nautical Twilight Sun does not rise Sun does not rise
Astronomical Twilight Sun does not rise Sun does not rise
Moon 12:25 AM PDT (6/25) 8:18 AM PDT (6/25)
Length of Visible Light 24h 00m
Length of Day
20h 59m
Waning Gibbous, 92% of the Moon is Illuminated
Jun 25
Waning Gibbous
Jun 29
Last Quarter
Jul 8
New
Jul 15
First Quarter
Jul 22
Full

Hourly Weather History & Observations

Time (PDT) Temp. Dew Point Humidity Pressure Visibility Wind Dir Wind Speed Gust Speed Precip Events Conditions
2:00 AM 53 °F 49 °F 84% 29.70 in - WSW 1.2 mph - -  
5:00 AM 47 °F 44 °F 84% 29.73 in - NE 1.2 mph - -  
6:00 AM 50.0 °F 44.6 °F 82% 29.74 in 20.0 mi Calm Calm - N/A   Clear
7:00 AM 51.8 °F 44.6 °F 76% 29.75 in 20.0 mi Calm Calm - N/A   Clear
8:00 AM 57 °F 48 °F 62% 29.73 in - ENE 1.2 mph - -  
8:00 AM 55.4 °F 46.4 °F 72% 29.73 in 20.0 mi Calm Calm - N/A   Clear
9:00 AM 60.8 °F 48.2 °F 63% 29.73 in 20.0 mi Calm Calm - N/A   Scattered Clouds
10:00 AM 66.2 °F 48.2 °F 52% 29.72 in 20.0 mi SW 2.3 mph - N/A   Partly Cloudy
11:00 AM 72 °F 51 °F 37% 29.71 in - SW 3.5 mph - -  
11:00 AM 71.6 °F 51.8 °F 50% 29.71 in 20.0 mi West 2.3 mph - N/A   Partly Cloudy
12:00 PM 77.0 °F 53.6 °F 44% 29.69 in 20.0 mi SW 3.5 mph - N/A   Partly Cloudy
1:00 PM 82.4 °F 50.0 °F 32% 29.68 in 20.0 mi Calm Calm - N/A   Partly Cloudy
2:00 PM 85 °F 45 °F 15% 29.68 in - NW 2.3 mph - -  
2:00 PM 84.2 °F 46.4 °F 27% 29.67 in 20.0 mi WSW 2.3 mph - N/A   Partly Cloudy
3:00 PM 86.0 °F 41.0 °F 20% 29.65 in 20.0 mi Calm Calm - N/A   Partly Cloudy
4:00 PM 87.8 °F 46.4 °F 24% 29.64 in 20.0 mi SW 5.8 mph - N/A   Partly Cloudy
5:00 PM 87 °F 44 °F 14% 29.64 in - East 3.5 mph - -  
5:00 PM 86.0 °F 46.4 °F 25% 29.62 in 20.0 mi ENE 4.6 mph - N/A   Partly Cloudy
6:00 PM 87.8 °F 42.8 °F 21% 29.62 in 20.0 mi North 5.8 mph - N/A   Partly Cloudy
7:00 PM 87.8 °F 42.8 °F 21% 29.60 in 20.0 mi North 4.6 mph - N/A   Partly Cloudy
8:00 PM 88 °F 44 °F 13% 29.61 in - NW 2.3 mph - -  
8:00 PM 87.8 °F 44.6 °F 22% 29.60 in 20.0 mi Calm Calm - N/A   Partly Cloudy